GW1259 Weather Reports


time (UTC)temp
F
wind
direction
speed
knots
gust
knots
rain 1hr
in
rain 24hr
in
rain mn
in
humidity
%
barometer
mb
20260510071557 50 146 0.0 0.9 0.00 0.00 0.00 93 1011.6
20260510070056 51 0 0.0 0.0 0.00 0.00 0.00 94 1011.3
20260510064607 50 0 0.0 0.0 0.00 0.00 0.00 93 1011.1
20260510063057 50 0 0.0 0.0 0.00 0.00 0.00 92 1010.9
20260510061558 50 0 0.0 0.9 0.00 0.00 0.00 92 1011.0
20260510060059 51 0 0.0 0.9 0.00 0.00 0.00 91 1011.2
20260510054557 51 0 0.0 0.9 0.00 0.00 0.00 90 1011.1
20260510053058 52 0 0.0 0.0 0.00 0.00 0.00 91 1011.1
20260510051559 53 0 0.0 0.0 0.00 0.00 0.00 90 1011.1
20260510050100 53 0 0.0 0.0 0.00 0.00 0.00 90 1011.2
20260510044632 53 0 0.0 0.0 0.00 0.00 0.00 90 1011.1
20260510043058 53 0 0.0 0.0 0.00 0.00 0.00 88 1011.0
20260510041557 54 0 0.0 0.0 0.00 0.00 0.00 88 1011.1
20260510040110 55 0 0.0 0.0 0.00 0.00 0.00 88 1011.1
20260510034557 55 0 0.0 0.0 0.00 0.00 0.00 88 1010.7
20260510033100 56 30 0.0 0.0 0.00 0.00 0.00 88 1010.7
20260510031558 56 0 0.0 0.0 0.00 0.00 0.00 88 1010.7
20260510030056 56 0 0.0 0.0 0.00 0.00 0.00 87 1010.6
20260510024602 57 0 0.0 0.0 0.00 0.00 0.00 86 1010.7
20260510023102 57 0 0.0 0.0 0.00 0.00 0.00 84 1010.6
20260510021600 57 0 0.0 0.0 0.00 0.00 0.00 85 1010.3
20260510020057 58 0 0.0 0.9 0.00 0.00 0.00 85 1010.2
20260510014558 59 0 0.0 0.0 0.00 0.00 0.00 82 1009.8
20260510013054 59 0 0.0 0.0 0.00 0.00 0.00 80 1009.8
20260510011558 60 0 0.0 0.0 0.00 0.00 0.00 81 1009.5
20260510010126 60 0 0.0 0.0 0.00 0.00 0.00 77 1009.3
20260510004557 61 0 0.0 0.0 0.00 0.00 0.00 77 1009.0
20260510003054 62 0 0.0 0.0 0.00 0.00 0.00 74 1008.9
20260510001604 63 0 0.0 0.0 0.00 0.00 0.00 73 1008.9
20260510000057 65 164 0.0 0.0 0.00 0.00 0.00 70 1008.8
20260509234618 66 0 0.0 0.9 0.00 0.00 0.00 72 1008.7
20260509233056 69 0 0.0 0.0 0.00 0.00 0.00 70 1008.6
20260509231556 71 0 0.0 0.0 0.00 0.00 0.00 66 1008.3
20260509230057 72 0 0.0 0.0 0.00 0.00 0.00 58 1008.5
20260509224605 72 0 0.0 0.0 0.00 0.00 0.00 53 1008.5
20260509223059 73 0 0.0 0.0 0.00 0.00 0.00 52 1008.4
20260509221600 73 0 0.0 0.0 0.00 0.00 0.00 53 1008.5
20260509220109 72 0 0.0 0.0 0.00 0.00 0.00 54 1008.5
20260509214559 72 0 0.0 0.0 0.00 0.00 0.00 53 1008.6
20260509213053 72 0 0.0 0.9 0.00 0.00 0.00 52 1008.4
20260509211558 72 0 0.0 1.7 0.00 0.00 0.00 52 1008.3
20260509210054 72 0 0.0 1.7 0.00 0.00 0.00 52 1008.4
20260509204606 73 173 0.9 2.6 0.00 0.00 0.00 51 1008.3
20260509203138 73 195 0.9 4.3 0.00 0.00 0.00 50 1008.2
20260509201610 74 148 1.7 4.3 0.00 0.00 0.00 49 1008.2
20260509194557 73 169 1.7 3.5 0.00 0.00 0.00 51 1008.6
20260509193126 73 144 2.6 4.3 0.00 0.00 0.00 53 1008.8
20260509191614 72 147 3.5 6.1 0.00 0.00 0.00 55 1009.0
20260509190057 71 138 0.9 2.6 0.00 0.00 0.00 56 1009.2
20260509184559 70 142 0.9 2.6 0.00 0.00 0.00 60 1009.6
20260509183059 69 158 0.9 1.7 0.00 0.00 0.00 61 1009.7
20260509181600 69 138 0.0 1.7 0.00 0.00 0.00 62 1009.7
20260509180105 68 342 0.0 0.9 0.00 0.00 0.00 61 1010.1
20260509174557 68 0 0.0 1.7 0.00 0.00 0.00 62 1010.4
20260509173102 67 166 0.9 1.7 0.00 0.00 0.00 61 1010.8
20260509171556 67 244 0.9 1.7 0.00 0.00 0.00 61 1011.1
20260509170100 67 249 1.7 3.5 0.00 0.00 0.00 62 1010.8
20260509164607 67 198 1.7 4.3 0.00 0.00 0.00 62 1010.8
20260509163055 66 157 1.7 4.3 0.00 0.00 0.00 61 1011.0
20260509161559 66 140 0.9 3.5 0.00 0.00 0.00 61 1011.1
20260509160057 66 139 1.7 2.6 0.00 0.00 0.00 63 1011.1
20260509154559 65 143 2.6 4.3 0.00 0.00 0.00 61 1011.1
20260509153057 65 140 1.7 4.3 0.00 0.00 0.00 61 1011.1
20260509151605 64 356 0.0 3.5 0.00 0.00 0.00 63 1011.1
20260509150056 63 144 0.0 2.6 0.00 0.00 0.00 65 1011.1
20260509144555 62 145 1.7 3.5 0.00 0.00 0.00 66 1011.3
20260509143055 61 139 0.9 2.6 0.00 0.00 0.00 66 1011.4
20260509141556 60 139 0.9 2.6 0.00 0.00 0.00 66 1011.7
20260509140054 59 147 1.7 3.5 0.00 0.00 0.00 66 1011.8
20260509134558 58 139 1.7 3.5 0.00 0.00 0.00 67 1011.7
20260509133104 57 150 0.9 3.5 0.00 0.00 0.00 69 1011.6
20260509131602 56 149 0.9 1.7 0.00 0.00 0.00 70 1011.7
20260509124557 55 143 0.9 1.7 0.00 0.00 0.00 69 1011.7
20260509123055 55 147 0.9 1.7 0.00 0.00 0.00 71 1011.8
20260509121556 55 152 0.0 0.9 0.00 0.00 0.00 71 1011.8
20260509120100 54 145 0.0 0.9 0.00 0.00 0.00 70 1011.9
20260509114558 54 146 0.0 1.7 0.00 0.00 0.00 71 1011.8
20260509113106 54 148 0.0 0.9 0.00 0.00 0.00 71 1011.5
20260509111604 54 150 0.0 1.7 0.00 0.00 0.00 72 1011.5
20260509110055 53 152 0.0 0.0 0.00 0.00 0.00 69 1011.4
20260509104555 54 0 0.0 0.0 0.00 0.00 0.00 70 1011.2
20260509103101 54 0 0.0 0.0 0.00 0.00 0.00 68 1011.3
20260509101555 54 0 0.0 0.0 0.00 0.00 0.00 67 1011.3
20260509100057 54 0 0.0 0.0 0.00 0.00 0.00 70 1011.3
20260509094555 54 0 0.0 0.0 0.00 0.00 0.00 68 1011.5
20260509093056 54 0 0.0 0.0 0.00 0.00 0.00 67 1011.4
20260509091601 54 0 0.0 0.0 0.00 0.00 0.00 68 1011.6
20260509090057 54 0 0.0 0.0 0.00 0.00 0.00 67 1011.7
20260509084558 54 0 0.0 0.0 0.00 0.00 0.00 67 1011.8
20260509083103 54 0 0.0 1.7 0.00 0.00 0.00 67 1011.9
20260509081604 54 142 0.0 1.7 0.00 0.00 0.00 66 1012.0
20260509080105 54 141 0.9 1.7 0.00 0.00 0.00 67 1012.0
20260509074558 54 143 0.0 0.9 0.00 0.00 0.00 67 1012.1
20260509073054 54 144 0.0 0.9 0.00 0.00 0.00 67 1012.1